Weather History for Winona, MN

Change the Weather History Date:

Tuesday, January 1, 2013

  Actual Average Record
Temperature  
Mean Temperature 5 °F -  
Max Temperature 19 °F 23 °F 46 °F (1998)
Min Temperature -9 °F 9 °F -19 °F (1974)
Degree Days  
Heating Degree Days 60    
Moisture  
Dew Point -2 °F    
Average Humidity 69    
Maximum Humidity 84    
Minimum Humidity 49    
Precipitation  
Precipitation 0.00 in - - ()
Sea Level Pressure  
Sea Level Pressure 30.22 in    
Wind  
Wind Speed 2 mph (West)    
Max Wind Speed 7 mph    
Max Gust Speed -    
Visibility 10 miles    
Events      
Averages and records for this station are not official NWS values.
T = Trace of Precipitation, MM = Missing Value Source: NWS Daily Summary

Daily Weather History Graph

Daily Weather History Graph

Search for Another Location

Airport:

Trip Planner

Search our weather history database for the weather conditions in past years. The results will help you decide how hot, cold, wet, or windy it might be!

Date:

Astronomy

Jan. 01, 2013 Rise Set
Actual Time 7:41 AM CST 4:39 PM CST
Civil Twilight 7:08 AM CST 5:12 PM CST
Nautical Twilight 6:32 AM CST 5:48 PM CST
Astronomical Twilight 5:57 AM CST 6:23 PM CST
Moon 9:21 PM CST (1/1) 9:44 AM CST (1/1)
Length of Visible Light 10h 03m
Length of Day
8h 57m
Waning Gibbous, 83% of the Moon is Illuminated
Jan 1
Waning Gibbous
Jan 4
Last Quarter
Jan 11
New
Jan 18
First Quarter
Jan 26
Full

Hourly Weather History & Observations

Time (CST) Temp. Windchill Dew Point Humidity Pressure Visibility Wind Dir Wind Speed Gust Speed Precip Events Conditions
12:14 AM -0.4 °F - -5.8 °F 78% 30.26 in 10.0 mi Calm Calm - N/A   Clear
12:33 AM -0.4 °F -8.3 °F -5.8 °F 78% 30.26 in 10.0 mi NW 3.5 mph - N/A   Clear
12:54 AM -0.4 °F - -5.8 °F 78% 30.26 in 10.0 mi Calm Calm - N/A   Clear
1:14 AM -0.4 °F - -5.8 °F 78% 30.26 in 10.0 mi Calm Calm - N/A   Clear
1:33 AM -0.4 °F -10.4 °F -7.6 °F 72% 30.26 in 10.0 mi NW 4.6 mph - N/A   Clear
1:54 AM -0.4 °F -8.3 °F -5.8 °F 78% 30.26 in 10.0 mi WNW 3.5 mph - N/A   Clear
2:13 AM -2.2 °F -10.4 °F -7.6 °F 78% 30.27 in 10.0 mi WNW 3.5 mph - N/A   Clear
2:34 AM -4.0 °F -14.6 °F -9.4 °F 78% 30.27 in 10.0 mi NW 4.6 mph - N/A   Clear
3:13 AM -5.8 °F -14.5 °F -9.4 °F 84% 30.27 in 10.0 mi WNW 3.5 mph - N/A   Clear
3:34 AM -5.8 °F -14.5 °F -9.4 °F 84% 30.27 in 10.0 mi WNW 3.5 mph - N/A   Clear
3:54 AM -4.0 °F -12.4 °F -9.4 °F 78% 30.27 in 10.0 mi WNW 3.5 mph - N/A   Clear
4:13 AM -4.0 °F -14.6 °F -9.4 °F 78% 30.28 in 10.0 mi WNW 4.6 mph - N/A   Clear
4:34 AM -5.8 °F - -11.2 °F 77% 30.28 in 10.0 mi Calm Calm - N/A   Clear
4:54 AM -5.8 °F - -13.0 °F 71% 30.29 in 10.0 mi Calm Calm - N/A   Clear
5:13 AM -5.8 °F -14.5 °F -11.2 °F 77% 30.29 in 10.0 mi WNW 3.5 mph - N/A   Clear
5:34 AM -5.8 °F -14.5 °F -13.0 °F 71% 30.29 in 10.0 mi WNW 3.5 mph - N/A   Clear
6:13 AM -9.4 °F - -14.8 °F 77% 30.29 in 10.0 mi Calm Calm - N/A   Clear
6:34 AM -9.4 °F - -14.8 °F 77% 30.30 in 10.0 mi Calm Calm - N/A   Clear
6:54 AM -9.4 °F -20.9 °F -14.8 °F 77% 30.30 in 10.0 mi NNW 4.6 mph - N/A   Clear
7:13 AM -9.4 °F -18.6 °F -14.8 °F 77% 30.30 in 10.0 mi NW 3.5 mph - N/A   Clear
7:34 AM -9.4 °F - -14.8 °F 77% 30.31 in 10.0 mi Calm Calm - N/A   Clear
7:54 AM -9.4 °F -18.6 °F -14.8 °F 77% 30.30 in 10.0 mi NW 3.5 mph - N/A   Clear
8:13 AM -7.6 °F - -14.8 °F 71% 30.30 in 10.0 mi Calm Calm - N/A   Clear
8:34 AM -5.8 °F - -13.0 °F 71% 30.30 in 10.0 mi Calm Calm - N/A   Clear
8:54 AM -5.8 °F - -13.0 °F 71% 30.30 in 10.0 mi Calm Calm - N/A   Clear
9:13 AM -4.0 °F - -9.4 °F 78% 30.30 in 10.0 mi Calm Calm - N/A   Clear
9:34 AM -4.0 °F - -9.4 °F 78% 30.30 in 10.0 mi Calm Calm - N/A   Clear
9:54 AM -0.4 °F - -7.6 °F 72% 30.29 in 10.0 mi Calm Calm - N/A   Clear
10:13 AM -0.4 °F - -7.6 °F 72% 30.29 in 10.0 mi Calm Calm - N/A   Clear
10:34 AM 1.4 °F - -5.8 °F 72% 30.28 in 10.0 mi Calm Calm - N/A   Clear
10:54 AM 1.4 °F - -7.6 °F 66% 30.27 in 10.0 mi Calm Calm - N/A   Clear
11:13 AM 1.4 °F - -5.8 °F 72% 30.27 in 10.0 mi Calm Calm - N/A   Clear
11:34 AM 3.2 °F - -5.8 °F 66% 30.26 in 10.0 mi Calm Calm - N/A   Clear
11:54 AM 6.8 °F - -4.0 °F 61% 30.24 in 10.0 mi Calm Calm - N/A   Clear
12:13 PM 8.6 °F - -4.0 °F 57% 30.23 in 10.0 mi Calm Calm - N/A   Clear
12:34 PM 8.6 °F - -4.0 °F 57% 30.23 in 10.0 mi Calm Calm - N/A   Clear
12:54 PM 12.2 °F 6.1 °F -2.2 °F 53% 30.23 in 10.0 mi West 3.5 mph - N/A   Clear
1:13 PM 14.0 °F 6.5 °F -0.4 °F 53% 30.22 in 10.0 mi WSW 4.6 mph - N/A   Scattered Clouds
1:34 PM 14.0 °F - -0.4 °F 53% 30.22 in 10.0 mi Calm Calm - N/A   Overcast
1:54 PM 14.0 °F - -0.4 °F 53% 30.22 in 10.0 mi Calm Calm - N/A   Overcast
2:13 PM 14.0 °F - -0.4 °F 53% 30.21 in 10.0 mi Calm Calm - N/A   Overcast
2:34 PM 14.0 °F 8.2 °F -2.2 °F 49% 30.21 in 10.0 mi SW 3.5 mph - N/A   Overcast
2:53 PM 14.0 °F - -0.4 °F 53% 30.21 in 10.0 mi Calm Calm - N/A   Overcast
3:14 PM 14.0 °F 6.5 °F -0.4 °F 53% 30.20 in 10.0 mi SW 4.6 mph - N/A   Overcast
3:34 PM 14.0 °F - -0.4 °F 53% 30.19 in 10.0 mi Calm Calm - N/A   Overcast
3:53 PM 14.0 °F - -0.4 °F 53% 30.19 in 10.0 mi Calm Calm - N/A   Overcast
4:14 PM 14.0 °F - -0.4 °F 53% 30.19 in 10.0 mi Calm Calm - N/A   Overcast
4:34 PM 14.0 °F - -0.4 °F 53% 30.18 in 10.0 mi Calm Calm - N/A   Overcast
4:54 PM 15.8 °F 10.2 °F 3.2 °F 58% 30.18 in 10.0 mi West 3.5 mph - N/A   Overcast
5:13 PM 15.8 °F 7.2 °F 3.2 °F 58% 30.18 in 10.0 mi West 5.8 mph - N/A   Overcast
5:34 PM 15.8 °F 8.6 °F 5.0 °F 62% 30.18 in 10.0 mi West 4.6 mph - N/A   Overcast
5:54 PM 15.8 °F - 5.0 °F 62% 30.18 in 10.0 mi Calm Calm - N/A   Overcast
6:13 PM 15.8 °F - 6.8 °F 68% 30.17 in 10.0 mi Calm Calm - N/A   Overcast
6:34 PM 15.8 °F - 8.6 °F 73% 30.17 in 10.0 mi Calm Calm - N/A   Overcast
6:54 PM 15.8 °F - 8.6 °F 73% 30.16 in 10.0 mi Calm Calm - N/A   Overcast
7:14 PM 15.8 °F 10.2 °F 8.6 °F 73% 30.15 in 10.0 mi WSW 3.5 mph - N/A   Overcast
7:34 PM 15.8 °F 8.6 °F 8.6 °F 73% 30.16 in 10.0 mi WSW 4.6 mph - N/A   Overcast
7:54 PM 15.8 °F 8.6 °F 8.6 °F 73% 30.15 in 10.0 mi WSW 4.6 mph - N/A   Overcast
8:14 PM 15.8 °F 10.2 °F 8.6 °F 73% 30.15 in 10.0 mi WSW 3.5 mph - N/A   Overcast
8:34 PM 17.6 °F 9.3 °F 10.4 °F 73% 30.14 in 10.0 mi WSW 5.8 mph - N/A   Overcast
8:54 PM 15.8 °F 7.2 °F 8.6 °F 73% 30.14 in 10.0 mi WSW 5.8 mph - N/A   Overcast
9:14 PM 15.8 °F 7.2 °F 8.6 °F 73% 30.13 in 10.0 mi WSW 5.8 mph - N/A   Overcast
9:34 PM 17.6 °F 9.3 °F 8.6 °F 68% 30.12 in 10.0 mi SW 5.8 mph - N/A   Overcast
9:54 PM 17.6 °F 8.2 °F 10.4 °F 73% 30.13 in 10.0 mi SW 6.9 mph - N/A   Overcast
10:13 PM 17.6 °F 9.3 °F 10.4 °F 73% 30.12 in 10.0 mi SW 5.8 mph - N/A   Overcast
10:34 PM 17.6 °F 12.3 °F 10.4 °F 73% 30.12 in 10.0 mi WSW 3.5 mph - N/A   Overcast
10:54 PM 19.4 °F - 10.4 °F 68% 30.12 in 10.0 mi Calm Calm - N/A   Overcast
11:13 PM 19.4 °F - 12.2 °F 74% 30.12 in 10.0 mi Calm Calm - N/A   Overcast
11:34 PM 19.4 °F - 12.2 °F 74% 30.12 in 10.0 mi Calm Calm - N/A   Overcast
11:53 PM 17.6 °F - 10.4 °F 73% 30.11 in 10.0 mi Calm Calm - N/A   Mostly Cloudy